This is the latest recevied weather packets stored in our database for station/object KO4YAW. If no packets are shown the sender has not sent any weather packets the latest 10 day(s).
| Time | Temp. | Humidity | Pressure | Rain* | Wind** | Luminosity | Snow |
|---|---|---|---|---|---|---|---|
| 1777524034 | 7.78° C | 67% | 1020.9 hPa | 0 mm | - | 0 W/m² | - |
| 1777523134 | 7.78° C | 66% | 1020.9 hPa | 0 mm | - | 0 W/m² | - |
| 1777522234 | 7.78° C | 66% | 1020.9 hPa | 0 mm | - | 0 W/m² | - |
| 1777521334 | 8.33° C | 66% | 1020.9 hPa | 0 mm | - | 0 W/m² | - |
| 1777520434 | 8.33° C | 72% | 1020.8 hPa | 0 mm | - | 0 W/m² | - |
| 1777519534 | 7.78° C | 76% | 1020.6 hPa | 0 mm | - | 0 W/m² | - |
| 1777518634 | 7.78° C | 75% | 1020.5 hPa | 0 mm | - | 0 W/m² | - |
| 1777517734 | 7.78° C | 74% | 1020.3 hPa | 0 mm | - | 0 W/m² | - |
| 1777516834 | 7.78° C | 75% | 1020.1 hPa | 0 mm | - | 0 W/m² | - |
| 1777515934 | 8.33° C | 74% | 1019.7 hPa | 0 mm | - | 0 W/m² | - |
| 1777515034 | 8.33° C | 72% | 1019.7 hPa | 0 mm | - | 0 W/m² | - |
| 1777514134 | 8.33° C | 71% | 1019.6 hPa | 0 mm | - | 2 W/m² | - |
| 1777513234 | 8.89° C | 68% | 1019.3 hPa | 0 mm | - | 5 W/m² | - |
| 1777512334 | 9.44° C | 65% | 1019.1 hPa | 0 mm | - | 11 W/m² | - |
| 1777511434 | 10° C | 52% | 1018.9 hPa | 0 mm | - | 22 W/m² | - |
| 1777510534 | 10° C | 52% | 1018.6 hPa | 0 mm | - | 28 W/m² | - |
| 1777509634 | 10° C | 55% | 1018.5 hPa | 0 mm | - | 87 W/m² | - |
| 1777508734 | 10° C | 56% | 1018.5 hPa | 0 mm | - | 67 W/m² | - |
| 1777507834 | 10° C | 58% | 1018.5 hPa | 0 mm | - | 140 W/m² | - |
| 1777506934 | 10° C | 62% | 1018.4 hPa | 0 mm | - | 72 W/m² | - |
| 1777506034 | 10° C | 64% | 1018.5 hPa | 0 mm | - | 59 W/m² | - |
| 1777505134 | 10° C | 63% | 1018.3 hPa | 0 mm | - | 48 W/m² | - |
| 1777504234 | 10.56° C | 60% | 1018 hPa | 0 mm | - | 119 W/m² | - |
| 1777503334 | 11.11° C | 58% | 1017.8 hPa | 0 mm | - | 171 W/m² | - |
| 1777502434 | 11.67° C | 57% | 1017.7 hPa | 0 mm | - | 224 W/m² | - |
* Rain since midnight (hover to see other rain measurements)
** Current wind speed in m/s (hover to see current wind gust speed)